Regional Weather Roundup
Issued by NWS

Home | Current Version | Previous Version | Graphics & Text | Print | Product List | Glossary On
Versions: 1 2 3 4 5 6 7 8 9 10 11 12 13 14 15 16 17 18 19 20 21 22 23 24 25 26 27 28 29 30 31 32 33 34 35 36 37 38 39 40 41 42 43 44 45 46 47 48 49 50
968
ASUS43 KMPX 181310
RWRMN
WEATHER ROUNDUP FOR MINNESOTA
NATIONAL WEATHER SERVICE TWIN CITIES/CHANHASSEN MN
700 AM CST SUN FEB 18 2018


NOTE: "FAIR" INDICATES FEW OR NO CLOUDS BELOW 12,000 FEET WITH NO
SIGNIFICANT WEATHER AND/OR OBSTRUCTIONS TO VISIBILITY. N/A MEANS
CURRENT SKY AND/OR WEATHER CONDITIONS ARE NOT AVAILABLE.

MNZ060>063-068>070-181400-
   Twin Cities Metro

CITY           SKY/WX    TMP DP  RH WIND       PRES   REMARKS
TWIN CITIES    CLOUDY    22   9  57 SE9       29.95F WCI  12
ST PAUL        MOCLDY    21   8  57 SE10      29.97F WCI  10
CRYSTAL        MOCLDY    22   6  50 SE12      29.93F WCI  10
BLAINE         CLOUDY    23   7  50 SE12G17   29.93F WCI  12
LAKEVILLE      FAIR      19  10  68 SE9       29.94F WCI   9
EDEN PRAIRIE   FAIR      23   8  52 SE16      29.92F WCI  10
SOUTH ST PAUL  MOCLDY    21   8  58 SE9       29.97F WCI  10
LAKE ELMO      FAIR      21   9  58 E8        29.96F WCI  12
$$
MNZ001>005-007-008-013>017-022>024-027-028-181400-
   Northwest Minnesota

CITY           SKY/WX    TMP DP  RH WIND       PRES   REMARKS
BEMIDJI        LGT SNOW  10   8  89 SE7       29.85S WCI   0
HALLOCK        CLOUDY     7   1  78 E7        29.91F WCI  -5
WARROAD        FAIR       3  -2  78 S6        29.93S WCI  -8
THIEF RVR FALL LGT SNOW  10   4  76 E10       29.89R WCI  -4
CROOKSTON      LGT SNOW  12   9  85 E9        29.89S WCI   0
FOSSTON        SNOW      10   7  85 E3        29.84F VSB 1/2
DETROIT LAKES  MOCLDY    18  14  86 E7        29.78F WCI   8
MOORHEAD       CLOUDY    18  12  79 E7        29.80S WCI   8
PARK RAPIDS    LGT SNOW  12   8  84 NE8       29.80F FOG     WCI   0
MAHNOMEN       LGT SNOW  14  11  87 E10       29.80F WCI   2
$$
MNZ006-009>011-018-025>026-181400-
   North Central Minnesota

CITY           SKY/WX    TMP DP  RH WIND       PRES   REMARKS
BAUDETTE       CLOUDY     1  -6  72 E3        29.92S
FLAG ISLAND    MOCLDY    -4  -9  77 CALM      29.94R
INTL FALLS     CLOUDY    -1  -7  75 E8        29.95F WCI -15
WASKISH        LGT SNOW   9   3  78 E8        29.90F WCI  -4
BIG FORK       LGT SNOW   9   5  85 E5        29.90F WCI   0
LONGVILLE      LGT SNOW  12   9  85 CALM      29.87F
GRAND RAPIDS   LGT SNOW  10   7  87 SE5       29.92F VSB 1   WCI   2
CRANE LAKE     CLOUDY    -2  -6  84 CALM      29.99F
ORR            CLOUDY     3  -2  78 CALM      29.92S
COOK           LGT SNOW   5   1  85 CALM      29.95S
WALKER         LGT SNOW  11   8  88 CALM      29.85F
$$
MNZ012-019>021-037-181400-
   Northeast Minnesota

CITY           SKY/WX    TMP DP  RH WIND       PRES   REMARKS
DULUTH         CLOUDY    13   5  70 SE8       29.94F WCI   2
ELY            MOCLDY     1  -2  85 CALM      29.95F
HIBBING        LGT SNOW   6   2  83 E5        29.93F VSB 1   WCI  -3
EVELETH        LGT SNOW N/A N/A N/A CALM      29.95S
DULUTH HARBOR  CLOUDY    18   9  68 E3        30.02F
TWO HARBORS    FAIR      10   3  72 CALM      29.97F
GRAND MARAIS     N/A     11  -1  58 N6        30.06F WCI   1
G MARAIS ARPRT MOCLDY    -2  -8  78 N5        29.95F WCI -12
$$
MNZ029>031-032-039>041-046>048-054>057-064-181400-
   West Central Minnesota

CITY           SKY/WX    TMP DP  RH WIND       PRES   REMARKS
FERGUS FALLS   FAIR      19  16  86 E16       29.74F WCI   5
WHEATON        CLOUDY    23   9  54 E21G26    29.70F WCI   8
MORRIS         CLOUDY    25   9  50 SE29      29.67F WCI   8
ALEXANDRIA     CLOUDY    19  12  74 E22G28    29.75F WCI   2
ELBOW LAKE     CLOUDY    20  11  69 SE20G30   29.71F WCI   4
WADENA         CLOUDY    16  10  79 E14       29.79F WCI   1
GLENWOOD       FAIR      19   9  63 E22       29.77F WCI   3
APPLETON       CLOUDY    27  18  69 E24G32    29.67F WCI  12
BENSON         CLOUDY    25  10  54 SE20G26   29.73F WCI  11
ORTONVILLE     CLOUDY    25  18  74 SE17G29   29.67S WCI  11
MADISON        CLOUDY    28  21  74 SE25      29.67F WCI  14
WILLMAR        FAIR      23  14  68 SE22G29   29.79F WCI   8
$$
MNZ033>034-036-042>043-049>051-058-059-181400-
   Central Minnesota

CITY           SKY/WX    TMP DP  RH WIND       PRES   REMARKS
ST CLOUD       CLOUDY    20   6  55 SE10      29.89F WCI   9
SAUK CENTRE    CLOUDY    19  10  67 E15       29.80F WCI   5
PAYNESVILLE    CLOUDY    22  10  59 SE15G22   29.82F WCI   9
AITKIN         LGT SNOW  14  10  85 SE7       29.90R WCI   4
PINE RIVER     MIX PCPN  12   9  85 E7        29.89F WCI   2
BRAINERD       CLOUDY    16  10  77 SE6       29.87F WCI   7
STAPLES        CLOUDY    16  10  79 SE7       29.82F WCI   6
LONG PRAIRIE   FAIR      18  12  79 E16       29.83F WCI   3
LITTLE FALLS     N/A    N/A N/A N/A SE10        N/A
LITCHFIELD     FAIR      25  12  58 SE20G26   29.85F WCI  11
BUFFALO        CLOUDY    23   7  51 E12G18    29.91F WCI  11
MAPLE LAKE     CLOUDY    23  10  58 SE10      29.90F WCI  12
HUTCHINSON     CLOUDY    23  15  72 E15       29.85F WCI  10
$$
MNZ037-044-045-052-053-181400-
   East Central Minnesota

CITY           SKY/WX    TMP DP  RH WIND       PRES   REMARKS
PRINCETON      CLOUDY    21   7  53 E10       29.91F WCI  10
MORA           FAIR      18   7  62 E8        29.94F WCI   7
CAMBRIDGE        N/A     21   9  58 E7        29.94F WCI  13
RUSH CITY      CLOUDY    17   7  63 SE6       29.96F WCI   9
MOOSE LAKE     LGT SNOW  14  10  85 SE3       29.94F
HINCKLEY       PTSUNNY   18   9  68 SE5       29.96S WCI  11
CLOQUET        LGT SNOW  12   3  67 E3        29.93F
MCGREGOR       CLOUDY    16  12  86 SE8       29.92S WCI   5
$$
MNZ071>073-080-081-089-090-097-098-181400-
   Southwest Minnesota

CITY           SKY/WX    TMP DP  RH WIND       PRES   REMARKS
MONTEVIDEO     CLOUDY    25  19  80 SE24      29.69F WCI   9
GRANITE FALLS  CLOUDY    27  21  78 E29G36    29.71F WCI  11
CANBY          CLOUDY    28  23  83 E16G24    29.65F WCI  15
MARSHALL       MOCLDY    27  22  81 SE24G31   29.66F WCI  12
REDWOOD FALLS  MOCLDY    23  18  81 SE18G32   29.76F WCI   9
OLIVIA         MOCLDY    27  19  74 SE20G26   29.77F WCI  13
PIPESTONE      CLOUDY    28  21  74 S23G31    29.62F WCI  14
WINDOM         PTCLDY    25  10  54 SE21G28   29.76F HAZE    WCI  10
WORTHINGTON    PTCLDY    26  22  84 S23G31    29.71F WCI  11
JACKSON        PTCLDY    25  21  86 SE16        N/A  WCI  12
TRACY          CLOUDY    28  24  84 S21G33    29.68F WCI  14
SLAYTON        CLOUDY    26  22  88 SE26G32   29.68F WCI  10
$$
MNZ065>067-074>077-082>085-091>093-181400-
   South Central Minnesota

CITY           SKY/WX    TMP DP  RH WIND       PRES   REMARKS
MANKATO        FAIR      23  19  85 SE20      29.88F WCI   8
NEW ULM        CLOUDY    23  18  80 SE16G24   29.83F WCI  10
ST JAMES       PTCLDY    23  19  86 SE18      29.83F WCI   9
FAIRMONT       LGT SNOW  24  21  88 SE29G35   29.82F FOG     WCI   7
GLENCOE        CLOUDY    23  16  74 E17       29.86F WCI   9
FARIBAULT      FAIR      23  16  74 E15G21    29.93F WCI  10
OWATONNA       FAIR      23  18  80 SE16      29.92F WCI  10
WASECA         FAIR      23  19  86 SE16      29.93F WCI  10
ALBERT LEA     FAIR      21  19  93 SE16      29.92F WCI   7
$$
MNZ078>079-086>088-094>096-181400-
   Southeast Minnesota

CITY           SKY/WX    TMP DP  RH WIND       PRES   REMARKS
ROCHESTER      FAIR      19  17  92 SE17      29.98F WCI   4
RED WING       FAIR      19   9  63 SE12      29.98F WCI   7
STANTON        FAIR      24  10  56 SE13G20   29.95F WCI  12
DODGE CENTER   FAIR      19  18  93 SE17      29.94F WCI   4
WINONA         FAIR      19  16  86 S3        30.06F
AUSTIN         FAIR      21  19  93 SE8       29.96F WCI  12
PRESTON        FAIR      17  15  92 SE6       30.01F WCI   8
$$
ABBREVIATIONS USED IN REMARKS
   TC - TEMPERATURES IN CELSIUS
  WCI - WIND CHILL INDEX
   HX - HEAT INDEX
  VSB - VISIBILITY
$$




USA.gov is the U.S. government's official web portal to all federal, state and local government web resources and services.